This demonstration page uses our WeatherBlox Daily Observations layout. Learn more.

Left ArrowRight Arrow

39.51506, -84.39828

Hourly Observations for June 5, 2016

Temp ( °F °C ) Dew Point ( °F °C ) Humidity (%) Winds ( mph kmh ) Pressure ( in mb ) Visibility ( mi km ) Precip ( " mm )
12:15 am 00:15 Clear 69 20.8 64 18 84 84 SSW 5 7 29.80 1009 10 16 N/A
12:35 am 00:35 Clear 69 20.8 64 18 84 84 SSW 5 7 29.80 1009 10 16 N/A
12:55 am 00:55 Partly Cloudy 69 20.8 65 18.1 85 85 S 6 9 29.80 1009 10 16 N/A
1:15 am 01:15 Mostly Cloudy 69 20.8 65 18.1 85 85 SSW 5 7 29.77 1008 10 16 N/A
1:35 am 01:35 Mostly Cloudy 69 20.8 65 18.1 85 85 SSW 3 6 29.77 1008 10 16 N/A
1:55 am 01:55 Partly Cloudy 67 19.5 62 16.7 84 84 N N/A 29.77 1008 7 11 N/A
2:15 am 02:15 Partly Cloudy 67 19.5 62 16.7 84 84 N N/A 29.77 1008 7 11 N/A
2:35 am 02:35 Partly Cloudy 67 19.5 62 16.7 84 84 SSW 6 9 29.77 1008 10 16 N/A
2:55 am 02:55 Partly Cloudy 67 19.5 62 16.7 84 84 SSW 5 7 29.77 1008 10 16 N/A
3:15 am 03:15 Clear 67 19.5 62 16.7 84 84 SSW 6 9 29.77 1008 10 16 N/A
3:35 am 03:35 Clear 69 20.7 65 18.1 85 85 SSW 7 11 29.77 1008 10 16 N/A
3:55 am 03:55 Mostly Cloudy 69 20.8 65 18.1 85 85 SW 7 11 29.74 1007 10 16 N/A
4:15 am 04:15 Cloudy 69 20.8 65 18.1 85 85 SSW 7 11 29.74 1007 10 16 N/A
4:35 am 04:35 Cloudy 69 20.8 65 18.1 85 85 SSW 6 9 29.74 1007 10 16 N/A
4:55 am 04:55 Cloudy with Drizzle 69 20.8 65 18.1 85 85 SW 7 11 29.74 1007 7 11 N/A
5:15 am 05:15 Cloudy 69 20.8 65 18.1 85 85 SW 6 9 29.74 1007 10 16 N/A
5:35 am 05:35 Cloudy 69 20.8 65 18.1 85 85 SSW 7 11 29.74 1007 10 16 N/A
5:55 am 05:55 Cloudy 69 20.8 64 18 84 84 SW 7 11 29.74 1007 10 16 N/A
6:15 am 06:15 Cloudy 69 20.8 64 18 84 84 SSW 6 9 29.74 1007 10 16 N/A
6:35 am 06:35 Mostly Cloudy 69 20.8 64 18 84 84 SSW 6 9 29.74 1007 7 11 N/A
6:55 am 06:55 Mostly Cloudy 69 20.8 64 18 84 84 SW 7 11 29.74 1007 7 11 N/A
7:15 am 07:15 Mostly Cloudy 69 20.8 64 17.8 83 83 SW 6 9 29.74 1007 7 11 N/A
7:35 am 07:35 Cloudy 69 20.8 64 17.7 83 83 SW 8 13 29.74 1007 7 11 N/A
7:55 am 07:55 Cloudy 69 20.8 64 17.7 83 83 SW 8 13 29.77 1008 7 11 N/A
8:15 am 08:15 Cloudy 69 20.8 64 17.5 82 82 SSW 9 15 29.77 1008 7 11 N/A
8:35 am 08:35 Cloudy 69 20.8 64 17.5 82 82 SSW 7 11 29.77 1008 10 16 N/A
8:55 am 08:55 Mostly Cloudy 71 21.7 64 17.8 79 79 SSW 8 13 29.74 1007 10 16 N/A
9:15 am 09:15 Mostly Cloudy 73 22.7 65 18.4 77 77 SW 9 15 29.74 1007 10 16 N/A
9:35 am 09:35 Mostly Cloudy 74 23.6 66 18.8 75 75 SSW 8 13 29.74 1007 10 16 N/A
9:55 am 09:55 Mostly Cloudy 74 23.6 65 18.5 73 73 SSW 8 13 29.74 1007 10 16 N/A
10:15 am 10:15 Partly Cloudy 74 23.6 64 17.7 70 70 SSW 8 13 29.74 1007 10 16 N/A
10:35 am 10:35 Partly Cloudy 77 25.1 65 18.2 66 66 SSW 12 19 29.74 1007 10 16 N/A
10:55 am 10:55 Mostly Cloudy 77 25.1 64 18 65 65 SSW 13 20 29.74 1007 10 16 N/A
11:15 am 11:15 Partly Cloudy 77 25.1 63 17.2 62 62 SSW 17 28 29.71 1006 10 16 N/A
11:35 am 11:35 Partly Cloudy 80 26.5 64 17.8 59 59 SSW 12 19 29.68 1005 10 16 N/A
11:55 am 11:55 Mostly Cloudy 80 26.5 64 17.7 59 59 SSW 13 20 29.68 1005 10 16 N/A
12:15 pm 12:15 Mostly Cloudy 80 26.5 64 17.6 58 58 SSW 17 28 29.68 1005 10 16 N/A
12:35 pm 12:35 Mostly Cloudy 80 26.6 59 15.1 49 49 SSW 14 22 29.68 1005 10 16 N/A
12:55 pm 12:55 Mostly Cloudy 80 26.6 60 15.3 50 50 SSW 16 26 29.68 1005 10 16 N/A
1:15 pm 13:15 Cloudy with Rain 75 23.8 60 15.8 61 61 W 17 28 29.71 1006 7 11 N/A
1:35 pm 13:35 Mostly Cloudy 74 23.6 61 16.3 64 64 W 12 19 29.71 1006 10 16 N/A
1:55 pm 13:55 Cloudy 74 23.6 61 16.2 63 63 SW 15 24 29.71 1006 10 16 N/A
2:15 pm 14:15 Mostly Cloudy 74 23.6 61 16.3 64 64 SSW 10 17 29.71 1006 10 16 N/A
2:35 pm 14:35 Partly Cloudy 77 25.1 63 17.3 62 62 S 13 20 29.71 1006 10 16 N/A
2:55 pm 14:55 Partly Cloudy 79 26 64 17.5 60 60 SW 18 30 29.68 1005 10 16 N/A
3:15 pm 15:15 Partly Cloudy 80 26.5 56 13.2 44 44 SW 18 30 29.68 1005 10 16 N/A
3:35 pm 15:35 Mostly Cloudy 80 26.5 56 13.5 45 45 W 16 26 29.68 1005 10 16 N/A
3:55 pm 15:55 Sunny 80 26.5 55 12.7 42 42 WSW 18 30 29.68 1005 10 16 N/A
4:15 pm 16:15 Sunny 81 27.2 55 12.7 41 41 W 17 28 29.68 1005 10 16 N/A
4:35 pm 16:35 Partly Cloudy 80 26.5 54 12.2 41 41 WSW 17 28 29.68 1005 10 16 N/A
4:55 pm 16:55 Partly Cloudy 80 26.5 53 11.8 40 40 W 17 28 29.68 1005 10 16 N/A
5:15 pm 17:15 Sunny 80 26.5 54 12 41 41 WSW 17 28 29.68 1005 10 16 N/A
5:35 pm 17:35 Partly Cloudy 80 26.5 54 12 41 41 WSW 20 31 29.68 1005 10 16 N/A
5:55 pm 17:55 Partly Cloudy 80 26.5 53 11.7 40 40 W 12 19 29.71 1006 10 16 N/A
6:35 pm 18:35 Sunny 80 26.5 53 11.7 40 40 W 15 24 29.71 1006 10 16 N/A
6:55 pm 18:55 Sunny 77 25.2 51 10.5 40 40 W 14 22 29.74 1007 10 16 N/A
7:15 pm 19:15 Sunny 77 25.1 51 10.4 40 40 W 13 20 29.74 1007 10 16 N/A
7:35 pm 19:35 Sunny 77 25.1 52 11 41 41 W 9 15 29.74 1007 10 16 N/A
7:55 pm 19:55 Sunny 77 25.1 53 11.6 43 43 W 14 22 29.77 1008 10 16 N/A
8:15 pm 20:15 Sunny 75 23.9 52 11.2 45 45 W 9 15 29.77 1008 10 16 N/A
8:35 pm 20:35 Sunny 74 23.6 53 11.7 47 47 W 8 13 29.77 1008 10 16 N/A
8:55 pm 20:55 Sunny 74 23.6 55 12.9 51 51 WSW 6 9 29.77 1008 10 16 N/A
9:15 pm 21:15 Clear 70 21 55 12.7 59 59 SW 6 9 29.77 1008 10 16 N/A
9:35 pm 21:35 Clear 69 20.8 56 13.5 63 63 SW 5 7 29.77 1008 10 16 N/A
9:55 pm 21:55 Clear 69 20.8 59 15.1 70 70 SW 3 6 29.77 1008 10 16 N/A
10:15 pm 22:15 Clear 69 20.8 59 15.2 70 70 SW 3 6 29.80 1009 10 16 N/A
10:35 pm 22:35 Clear 69 20.8 59 15 70 70 SW 7 11 29.80 1009 10 16 N/A
10:55 pm 22:55 Clear 69 20.8 60 15.3 71 71 SW 6 9 29.80 1009 10 16 N/A
11:15 pm 23:15 Clear 69 20.8 59 14.8 69 69 SW 7 11 29.80 1009 10 16 N/A
11:35 pm 23:35 Clear 69 20.8 59 15 70 70 SW 6 9 29.80 1009 10 16 N/A
11:55 pm 23:55 Clear 67 19.5 58 14.3 72 72 SSW 6 9 29.80 1009 10 16 N/A

Powered by AerisWeather